[[{"header":{"parameterUnit":"m.s-1","parameterCategory":1,"la1":30.2991,"la2":30.254,"lo1":-89.0895,"lo2":-89.0444,"dy":0.0017,"dx":0.0017,"nx":28,"ny":28,"refTime":"2024-07-16T09:00:00:Z","depth":0,"parameterNumber":2,"parameterNumberName":"U-component_of_WINDS"},"data":[0,0,0,0,0,0,0,0,0,0,0,0,0,0,0,0,0,0,0,0,0,0,0,0,0,0,0,0,0,0,0,0,0,0,0,0,0,0,0,0,0,0,0,0,0,0,0,0,0,0,0,0,0,0,0,0,0,0,3.3243,3.3244,0,3.3329,3.333,3.3331,3.326,3.3257,3.3254,3.3251,3.3338,3.3343,3.3348,0,0,0,0,0,0,0,0,0,0,0,0,0,3.3014,3.3018,3.3242,3.3244,3.3245,3.3329,3.333,3.3331,3.3261,3.3257,3.3253,3.325,3.3337,3.3343,3.3349,0,0,0,0,0,0,0,0,0,0,0,0,0,3.3108,3.302,3.3242,3.322,3.3219,3.3328,3.333,3.3331,3.3261,3.3257,3.3252,3.3248,3.3335,3.3342,3.3349,3.3486,0,0,3.3373,3.3376,0,0,0,0,0,0,0,0,3.3103,3.3116,3.3222,3.3222,3.322,3.3279,3.3281,3.3383,3.3263,3.3245,3.3251,3.3246,3.3322,3.333,3.3356,3.349,3.3493,3.3373,3.3378,3.3381,3.3383,0,0,0,0,0,0,0,3.3096,3.3112,3.3276,3.3224,3.3223,3.3204,3.3213,3.33,3.3307,3.3246,3.3241,3.3253,3.3321,3.3349,3.3358,3.3495,3.3373,3.338,3.3385,3.3388,3.374,3.3745,0,0,0,0,0,0,3.3092,3.3107,3.3274,3.3279,3.3149,3.3212,3.3221,3.3265,3.3306,3.3308,3.3256,3.3249,3.3338,3.3349,3.3361,3.352,3.3381,3.3388,3.3393,3.3735,3.3741,3.3746,0,0,0,0,0,0,3.3088,3.3108,3.327,3.3192,3.3211,3.3221,3.327,3.3269,3.3297,3.3314,3.3315,3.3284,3.3335,3.335,3.3454,3.3522,3.3392,3.3399,3.373,3.3737,3.3744,3.3841,0,0,0,0,0,0,3.3081,3.3107,3.3159,3.3194,3.3216,3.3364,3.3274,3.3274,3.3311,3.3302,3.334,3.3342,3.3333,3.3443,3.3462,3.353,3.3405,3.3723,3.3733,3.3741,3.3832,3.385,3.3867,0,0,0,0,0,3.3074,3.3184,3.3162,3.3183,3.3282,3.3368,3.338,3.3368,3.3316,3.3368,3.3379,3.3341,3.3512,3.3455,3.3475,3.3546,3.3719,3.373,3.3741,3.3824,3.3847,3.3866,0,0,0,0,0,0,3.3157,3.3188,3.3165,3.3289,3.3327,3.3356,3.3421,3.3393,3.3445,3.3435,3.3416,3.3426,3.3535,3.3551,3.3487,3.3678,3.3607,3.3622,3.3663,3.3685,3.3702,3.3695,3.3411,0,0,0,0,0,3.319,3.3258,3.3281,3.3389,3.3409,3.3412,3.3449,3.3436,3.3474,3.3489,3.3507,3.3544,3.3606,3.3647,3.3705,3.3834,3.384,3.3893,3.3911,3.3925,3.3938,3.4004,3.4027,3.3782,3.3781,3.3781,0,0,3.3259,3.3284,3.3328,3.3407,3.3434,3.3503,3.3426,3.3503,3.3554,3.35,3.3599,3.3614,3.3654,3.3771,3.3823,3.3788,3.4007,3.3939,3.395,3.3955,3.4017,3.404,3.4061,3.3789,3.3788,3.3786,0,0,3.3419,3.3447,3.3538,3.3566,3.3608,3.3609,3.3631,3.3665,3.3672,3.3771,3.3732,3.3791,3.3899,3.3928,3.3957,3.4126,3.4092,3.4146,3.4236,3.4301,3.432,3.4337,3.4394,3.4416,3.4159,3.4159,3.4159,0,3.3499,3.3603,3.3588,3.3668,3.3702,3.3657,3.3747,3.3776,3.3835,3.3859,3.3819,3.3951,3.3975,3.4096,3.4137,3.4163,3.4185,3.414,3.4319,3.4336,3.4351,3.4406,3.4427,3.4165,3.4164,3.4164,3.4163,0,3.3697,3.377,3.3838,3.3895,3.3937,3.4023,3.4019,3.4063,3.4047,3.4051,3.4151,3.4179,3.424,3.4268,3.4253,3.4386,3.4363,3.4322,3.4249,3.4381,3.4431,3.4452,3.4174,3.4172,3.417,3.4168,0,0,3.3912,3.3959,3.3984,3.4008,3.405,3.4105,3.4187,3.4247,3.4284,3.4326,3.4392,3.4484,3.4445,3.4478,3.4465,3.4523,3.465,3.4474,3.4474,3.4503,3.4795,3.4824,3.4849,3.4629,3.4633,3.4636,3.4791,0,3.4071,3.4214,3.4202,3.4336,3.4401,3.4359,3.443,3.4462,3.4469,3.4524,3.4531,3.4595,3.454,3.4559,3.4614,3.4623,3.4708,3.4612,3.4688,3.4691,3.4677,3.4876,3.4907,3.5051,3.4811,3.4814,3.4817,0,3.4276,3.4324,3.4465,3.4495,3.4521,3.4585,3.4637,3.4692,3.4727,3.4728,3.4764,3.4741,3.4821,3.4749,3.4858,3.4793,3.4823,3.4832,3.4837,3.4842,3.476,3.4882,3.5098,3.5118,3.4848,3.4846,3.4844,0,3.4415,3.4515,3.4611,3.4633,3.4671,3.4717,3.4735,3.4766,3.4801,3.4847,3.487,3.4925,3.4954,3.4996,3.4988,3.4936,3.5098,3.5026,3.5098,3.5099,3.5133,3.513,3.5353,3.5158,3.5157,3.5157,3.5156,0,3.4592,3.4679,3.4673,3.4732,3.4827,3.4812,3.4907,3.4919,3.4947,3.5006,3.4974,3.503,3.5017,3.5072,3.5066,3.5155,3.517,3.5171,3.5168,3.5172,3.5172,3.519,3.5178,3.5162,3.5161,3.516,3.5159,0,3.4762,3.4762,3.4863,3.4891,3.4899,3.4968,3.4991,3.5045,3.5049,3.5124,3.5141,3.5146,3.5209,3.5206,3.5278,3.5273,3.5383,3.5369,3.537,3.5366,3.5438,3.543,3.5678,3.5708,3.5496,3.5498,3.55,0,3.4874,3.4939,3.4973,3.501,3.5031,3.5092,3.5128,3.5116,3.5154,3.5198,3.5247,3.5307,3.5354,3.5457,3.5466,3.552,3.5506,3.5589,3.5514,3.5515,3.5503,3.5498,3.5503,3.5603,3.5605,3.5607,3.5609,0,3.5071,3.5067,3.5121,3.5174,3.5217,3.5258,3.5296,3.5328,3.5319,3.5364,3.5428,3.5465,3.5537,3.5596,3.5647,3.5664,3.5634,3.5633,3.5652,3.5656,3.5652,3.5652,3.5407,3.5627,3.5625,3.5624,3.5623,3.5622,3.5213,3.5268,3.53,3.5359,3.5386,3.5421,3.5473,3.5483,3.5536,3.5594,3.5583,3.5654,3.5686,3.5751,3.5773,3.5827,3.5797,3.5826,3.5832,3.5839,3.5845,3.5646,3.5837,3.5836,3.5836,3.5835,3.5835,0,3.5406,3.5424,3.5479,3.5532,3.5578,3.5547,3.5586,3.5627,3.569,3.5722,3.5768,3.584,3.5897,3.5911,3.5965,3.6005,3.5993,3.602,3.6015,3.6019,3.5871,3.5847,3.6029,3.6028,3.6028,3.6028,3.6028,3.6028,3.5511,3.5602,3.5601,3.5704,3.5721,3.579,3.5815,3.5846,3.5871,3.5953,3.6,3.6009,3.6032,3.6088,3.6137,3.614,3.616,3.6191,3.6188,3.6049,3.603,3.6011,3.5989,3.6197,3.6197,3.6331,3.6332,3.6333]},{"header":{"parameterUnit":"m.s-1","parameterCategory":1,"la1":30.2991,"la2":30.254,"lo1":-89.0895,"lo2":-89.0444,"dy":0.0017,"dx":0.0017,"nx":28,"ny":28,"refTime":"2024-07-16T09:00:00:Z","depth":0,"parameterNumber":3,"parameterNumberName":"V-component_of_WINDS"},"data":[0,0,0,0,0,0,0,0,0,0,0,0,0,0,0,0,0,0,0,0,0,0,0,0,0,0,0,0,0,0,0,0,0,0,0,0,0,0,0,0,0,0,0,0,0,0,0,0,0,0,0,0,0,0,0,0,0,0,1.6317,1.6318,0,1.6399,1.64,1.64,1.6378,1.6377,1.6375,1.6373,1.6457,1.6461,1.6465,0,0,0,0,0,0,0,0,0,0,0,0,0,1.6141,1.6144,1.6317,1.6318,1.6319,1.6398,1.64,1.6401,1.6378,1.6376,1.6374,1.6373,1.6456,1.6461,1.6465,0,0,0,0,0,0,0,0,0,0,0,0,0,1.6219,1.6145,1.6317,1.6317,1.6318,1.6398,1.64,1.6401,1.6379,1.6376,1.6374,1.6372,1.6455,1.646,1.6466,1.655,0,0,1.6483,1.6486,0,0,0,0,0,0,0,0,1.6215,1.6226,1.6316,1.6318,1.6319,1.6376,1.6368,1.6451,1.638,1.6356,1.6373,1.637,1.6432,1.644,1.646,1.6554,1.6558,1.6484,1.6487,1.6489,1.6491,0,0,0,0,0,0,0,1.6209,1.6222,1.6349,1.6318,1.6319,1.6313,1.6322,1.6384,1.6407,1.6358,1.6356,1.6366,1.6432,1.6455,1.6462,1.6559,1.6483,1.6488,1.6492,1.6494,1.6723,1.6726,0,0,0,0,0,0,1.6203,1.6218,1.6347,1.6352,1.626,1.6318,1.6328,1.636,1.6406,1.6411,1.6368,1.6365,1.6447,1.6456,1.6465,1.6565,1.6489,1.6495,1.6498,1.672,1.6724,1.6727,0,0,0,0,0,0,1.6199,1.6215,1.6343,1.6284,1.63,1.6324,1.636,1.6363,1.6385,1.6414,1.6418,1.6387,1.6445,1.6457,1.6529,1.6568,1.6497,1.6502,1.6717,1.6721,1.6725,1.6767,0,0,0,0,0,0,1.6194,1.6214,1.6247,1.6285,1.6303,1.6406,1.6363,1.6366,1.6395,1.6391,1.6433,1.6437,1.6444,1.652,1.6534,1.6574,1.6507,1.6714,1.6719,1.6724,1.6762,1.6772,1.6781,0,0,0,0,0,1.6188,1.6256,1.6248,1.6264,1.6345,1.6408,1.6419,1.6425,1.6398,1.6431,1.6449,1.6436,1.6561,1.6528,1.6543,1.6586,1.6711,1.6718,1.6724,1.6758,1.677,1.678,0,0,0,0,0,0,1.6222,1.6261,1.6253,1.6335,1.6369,1.6405,1.6446,1.6438,1.6479,1.6474,1.648,1.6489,1.6562,1.6581,1.6543,1.6668,1.6632,1.6642,1.6654,1.6665,1.6674,1.6668,1.6512,0,0,0,0,0,1.6239,1.6287,1.6319,1.6388,1.6405,1.6423,1.6451,1.6452,1.6487,1.6501,1.6525,1.6559,1.6605,1.6636,1.6681,1.6765,1.6773,1.6802,1.6811,1.6818,1.6826,1.6869,1.6882,1.6747,1.6746,1.6746,0,0,1.6274,1.6302,1.6332,1.6395,1.6421,1.6471,1.6435,1.6489,1.6525,1.6509,1.6578,1.6596,1.6634,1.6712,1.6747,1.673,1.6865,1.6826,1.6831,1.6835,1.6877,1.689,1.6901,1.6751,1.675,1.6749,0,0,1.6364,1.639,1.645,1.6476,1.6515,1.6526,1.6541,1.6578,1.6589,1.6657,1.6646,1.6689,1.677,1.6797,1.6821,1.6919,1.6907,1.6933,1.698,1.7023,1.7033,1.7043,1.7076,1.7088,1.6941,1.6941,1.6941,0,1.6404,1.6478,1.6482,1.6536,1.6564,1.655,1.661,1.6635,1.6688,1.6707,1.6686,1.6786,1.6811,1.6894,1.6917,1.6938,1.6953,1.6929,1.7032,1.7041,1.705,1.7082,1.7095,1.6944,1.6943,1.6943,1.6943,0,1.6523,1.6574,1.6618,1.6667,1.67,1.6757,1.6769,1.6801,1.6799,1.6811,1.688,1.691,1.6959,1.6979,1.6978,1.7061,1.7048,1.703,1.6994,1.7066,1.7096,1.7108,1.6948,1.6947,1.6946,1.6945,0,0,1.6638,1.6687,1.6703,1.6724,1.6766,1.6805,1.6861,1.6908,1.6935,1.6971,1.7017,1.7085,1.7067,1.7095,1.7096,1.7134,1.7207,1.711,1.7111,1.7126,1.7298,1.7311,1.7325,1.7199,1.7202,1.7204,1.7294,0,1.6731,1.6828,1.6832,1.6921,1.6967,1.6954,1.7002,1.7032,1.7045,1.7086,1.71,1.7147,1.7121,1.7137,1.7174,1.719,1.7241,1.7184,1.7241,1.7243,1.7232,1.7341,1.7356,1.744,1.7306,1.7308,1.7309,0,1.6852,1.689,1.6983,1.7016,1.7035,1.7079,1.7121,1.7161,1.7194,1.7201,1.723,1.7226,1.7282,1.7243,1.7319,1.728,1.7304,1.7315,1.7318,1.7324,1.7281,1.7349,1.7467,1.7479,1.7328,1.7327,1.7325,0,1.6925,1.7,1.7064,1.7083,1.7123,1.7153,1.7171,1.7202,1.723,1.7267,1.7285,1.7328,1.7352,1.7385,1.7392,1.7364,1.7468,1.7431,1.7474,1.7474,1.7497,1.7495,1.762,1.7513,1.7513,1.7513,1.7512,0,1.7027,1.7085,1.7097,1.7137,1.72,1.7204,1.7266,1.7282,1.7309,1.735,1.7342,1.7381,1.7388,1.7429,1.7435,1.7496,1.7507,1.7513,1.7514,1.7514,1.7513,1.753,1.7524,1.7516,1.7515,1.7515,1.7514,0,1.712,1.7131,1.72,1.7231,1.724,1.7285,1.7312,1.7349,1.736,1.7413,1.7426,1.7443,1.7491,1.7501,1.7558,1.7561,1.7633,1.7629,1.7622,1.7622,1.7664,1.766,1.7803,1.7822,1.7703,1.7705,1.7705,0,1.7184,1.7228,1.7263,1.729,1.7309,1.7353,1.7381,1.7385,1.7415,1.7454,1.7487,1.7533,1.757,1.7646,1.7663,1.7706,1.7702,1.7749,1.7708,1.7706,1.7701,1.7698,1.7702,1.7757,1.7758,1.7759,1.776,0,1.7297,1.73,1.734,1.7381,1.7414,1.7447,1.7479,1.7502,1.751,1.7543,1.7591,1.762,1.7676,1.7722,1.7764,1.7782,1.7772,1.7773,1.7785,1.7785,1.7779,1.7782,1.7643,1.777,1.7769,1.7768,1.7767,1.7767,1.7377,1.7414,1.7444,1.7488,1.7512,1.7541,1.7577,1.7592,1.7632,1.7678,1.7678,1.773,1.776,1.7815,1.7836,1.7876,1.7861,1.7879,1.7883,1.7888,1.7891,1.7773,1.7884,1.7883,1.7883,1.7883,1.7883,0,1.7488,1.7506,1.7547,1.759,1.7625,1.7612,1.7646,1.7675,1.7721,1.775,1.7786,1.784,1.7883,1.7903,1.7946,1.7974,1.797,1.7985,1.7983,1.7987,1.7902,1.7887,1.7987,1.7987,1.7987,1.7987,1.7987,1.7987,1.755,1.7611,1.7617,1.769,1.7708,1.7758,1.7778,1.7804,1.7827,1.7887,1.7923,1.7936,1.796,1.8004,1.8043,1.8048,1.8064,1.808,1.8083,1.8003,1.7993,1.7983,1.7968,1.8084,1.8084,1.8163,1.8164,1.8165]}]]